Weather History for KBMG - December, 1998

Change the Weather History Date:

Wednesday, December 16, 1998

  Actual Average Record
Temperature  
Mean Temperature 36 °F 32 °F  
Max Temperature 39 °F 40 °F 62 °F (2006)
Min Temperature 32 °F 24 °F 17 °F (2008)
Degree Days  
Heating Degree Days 30 33  
Month to date heating degree days 496  
Since 1 July heating degree days 1552  
Cooling Degree Days 0 0  
Month to date cooling degree days 0  
Year to date cooling degree days 927  
Moisture  
Dew Point 32 °F    
Average Humidity 88    
Maximum Humidity 100    
Minimum Humidity 76    
Precipitation  
Precipitation 0.04 in 0.09 in 0.73 in (2001)
Month to date precipitation 1.63  
Year to date precipitation 45.64  
Sea Level Pressure  
Sea Level Pressure 30.04 in    
Wind  
Wind Speed 7 mph (West)    
Max Wind Speed 12 mph    
Max Gust Speed -    
Visibility 8 miles    
Events Rain    
T = Trace of Precipitation, MM = Missing Value Source: NWS Daily Summary

Daily Weather History Graph

Daily Weather History Graph

Search for Another Location

Airport or City:

Trip Planner

Search our weather history database for the weather conditions in past years. The results will help you decide how hot, cold, wet, or windy it might be!

Date:

Astronomy

Dec. 16, 1998 Rise Set
Actual Time 7:59 AM EST 5:25 PM EST
Civil Twilight 7:29 AM EST 5:55 PM EST
Nautical Twilight 6:55 AM EST 6:28 PM EST
Astronomical Twilight 6:22 AM EST 7:01 PM EST
Moon 5:37 AM EST (12/16) 4:14 PM EST (12/16)
Length of Visible Light 10h 25m
Length of Day
9h 25m
Waning Crescent, 5% of the Moon is Illuminated
Dec 16
Waning Crescent
Dec 18
New
Dec 26
First Quarter
Jan 1
Full
Jan 9
Last Quarter

Hourly Weather History & Observations

Time (EST) Temp. Windchill Dew Point Humidity Pressure Visibility Wind Dir Wind Speed Gust Speed Precip Events Conditions
12:53 AM 35.1 °F 29.3 °F 28.9 °F 78% 30.18 in 10.0 mi SSW 6.9 mph - N/A   Clear
1:53 AM 35.1 °F 30.1 °F 28.0 °F 76% 30.17 in 10.0 mi SW 5.8 mph - N/A   Clear
2:53 AM 33.1 °F 26.9 °F 28.9 °F 85% 30.16 in 10.0 mi WSW 6.9 mph - N/A   Clear
3:53 AM 34.0 °F 26.6 °F 28.9 °F 82% 30.13 in 10.0 mi WSW 9.2 mph - N/A   Clear
4:53 AM 33.1 °F 25.5 °F 28.9 °F 85% 30.10 in 10.0 mi WSW 9.2 mph - N/A   Clear
5:53 AM 33.1 °F 25.5 °F 28.9 °F 85% 30.09 in 10.0 mi SW 9.2 mph - N/A   Clear
6:53 AM 33.1 °F 26.9 °F 28.9 °F 85% 30.09 in 10.0 mi WSW 6.9 mph - N/A   Clear
7:53 AM 32.0 °F 28.7 °F 28.9 °F 88% 30.08 in 10.0 mi SW 3.5 mph - N/A   Clear
8:53 AM 34.0 °F 29.8 °F 30.0 °F 85% 30.08 in 10.0 mi West 4.6 mph - N/A   Partly Cloudy
9:53 AM 35.1 °F 29.3 °F 30.9 °F 85% 30.07 in 10.0 mi West 6.9 mph - N/A   Scattered Clouds
10:53 AM 37.0 °F 31.6 °F 32.0 °F 82% 30.06 in 10.0 mi WSW 6.9 mph - N/A   Overcast
11:53 AM 37.9 °F 32.1 °F 32.0 °F 79% 30.04 in 10.0 mi West 8.1 mph - N/A   Overcast
12:53 PM 39.0 °F 35.7 °F 33.1 °F 79% 30.01 in 10.0 mi WSW 4.6 mph - N/A   Overcast
1:53 PM 39.9 °F 35.8 °F 33.1 °F 77% 30.01 in 9.0 mi WNW 5.8 mph - N/A   Overcast
2:53 PM 39.9 °F 37.8 °F 34.0 °F 79% 29.98 in 10.0 mi SW 3.5 mph - N/A   Overcast
3:53 PM 39.9 °F 34.5 °F 34.0 °F 79% 30.01 in 10.0 mi West 8.1 mph - N/A   Overcast
4:43 PM 39.2 °F 33.6 °F 33.8 °F 81% 30.00 in 6.0 mi West 8.1 mph - 0.00 in Rain Light Rain
4:53 PM 37.9 °F 32.1 °F 34.0 °F 86% 30.02 in 4.0 mi West 8.1 mph - 0.01 in Rain Light Rain
5:53 PM 37.0 °F 31.6 °F 36.0 °F 96% 30.02 in 5.0 mi West 6.9 mph - 0.02 in Rain Light Rain
6:04 PM 37.4 °F 32.1 °F 35.6 °F 93% 30.00 in 5.0 mi West 6.9 mph - 0.01 in Rain Light Rain
6:53 PM 36.0 °F 30.3 °F 35.1 °F 97% 30.01 in 6.0 mi WSW 6.9 mph - 0.01 in   Overcast
7:36 PM 35.6 °F - 35.6 °F 100% 29.98 in 5.0 mi Calm Calm - N/A   Overcast
7:40 PM 35.6 °F 32.8 °F 33.8 °F 93% 29.99 in 5.0 mi West 3.5 mph - N/A   Overcast
7:53 PM 35.1 °F 30.1 °F 35.1 °F 100% 30.01 in 5.0 mi West 5.8 mph - N/A   Overcast
8:45 PM 35.6 °F 27.5 °F 35.6 °F 100% 30.00 in 8.0 mi WNW 11.5 mph - N/A   Overcast
8:53 PM 36.0 °F 29.0 °F 34.0 °F 93% 30.01 in 8.0 mi WNW 9.2 mph - N/A   Overcast
9:53 PM 36.0 °F 29.0 °F 34.0 °F 93% 30.01 in 8.0 mi West 9.2 mph - N/A   Overcast
10:01 PM 35.6 °F 29.2 °F 33.8 °F 93% 29.99 in 7.0 mi WNW 8.1 mph - N/A   Overcast
10:09 PM 35.6 °F 28.6 °F 33.8 °F 93% 29.99 in 7.0 mi WNW 9.2 mph - N/A   Overcast
10:33 PM 35.6 °F 28.6 °F 33.8 °F 93% 29.99 in 8.0 mi WNW 9.2 mph - N/A   Overcast
10:53 PM 35.1 °F 28.6 °F 33.1 °F 92% 30.00 in 9.0 mi WNW 8.1 mph - N/A   Overcast
11:53 PM 35.1 °F 26.9 °F 32.0 °F 89% 29.99 in 10.0 mi WNW 11.5 mph - N/A   Overcast